{"data":{"norad_id":60406,"epoch":"2026-09-21T02:40:47.239104Z","epoch_age_seconds":132740,"freshness":"FRESH","line1":"1 60406U 24141J   26264.11165786  .00000572  00000+0  95836-5 0  9992","line2":"2 60406  53.1601 203.0835 0001131  87.4944 272.6204 15.69708626122432","mean_motion":15.69708626,"eccentricity":0.0001131,"inclination_deg":53.1601,"raan_deg":203.0835,"arg_perigee_deg":87.4944,"mean_anomaly_deg":272.6204,"bstar":9.5836e-6,"rev_number":12243,"period_min":91.736770515779,"perigee_km":358.96862944984,"apogee_km":360.49273511958,"semimajor_km":6737.8676822847,"source":"CELESTRAK","updated_at":"2026-09-22T09:00:49.230350Z"}}